[TLELIST] Archives

 

[list_settings.list_name] Current TLEs

August 5th 2021 PST

HST 1 20580U 90037B 21216.90995098 .00000562 00000-0 23003-4 0 9990 2 20580 28.4699 104.4438 0002612 221.7067 242.9587 15.09697314518584 ISS (ZARYA) 1 25544U 98067A 21217.41094036 .00001714 00000-0 39399-4 0 9990 2 25544 51.6441 99.3030 0001228 256.1622 273.9991 15.48877353296226 CXO 1 25867U 99040B 21218.35714395 .00000512 00000-0 00000-0 0 9999 2 25867 53.9065 253.2039 8401720 226.7671 0.4433 0.37804469 10630 ____________________________________________________________________ These 2-Line ...Continue Reading

[list_settings.list_name] Current TLEs

August 4th 2021 PST

HST 1 20580U 90037B 21215.77803729 .00000543 00000-0 21833-4 0 9991 2 20580 28.4698 111.9338 0002645 209.1043 211.5168 15.09696290518416 ISS (ZARYA) 1 25544U 98067A 21216.47572917 .00001290 00000-0 31671-4 0 9998 2 25544 51.6439 103.9283 0001172 247.3319 104.6908 15.48871407296073 CXO 1 25867U 99040B 21218.35619252 .00000512 00000-0 00000-0 0 9995 2 25867 53.9065 253.2038 8401718 226.7671 0.3132 0.37804595 10620 ____________________________________________________________________ These 2-Line ...Continue Reading

[list_settings.list_name] Current TLEs

August 3rd 2021 PST

HST 1 20580U 90037B 21214.47470211 .00000531 00000-0 21128-4 0 9997 2 20580 28.4698 120.5582 0002687 194.8298 328.2442 15.09695163517970 ISS (ZARYA) 1 25544U 98067A 21214.88086691 -.00000636 00000-0 -34509-5 0 9999 2 25544 51.6433 111.8195 0001239 241.3032 212.0072 15.48861899295830 CXO 1 25867U 99040B 21215.71111934 .00000378 00000-0 00000+0 0 9995 2 25867 53.9655 253.3152 8397908 226.7303 0.2802 0.37804517 21753 ____________________________________________________________________ These 2-Line ...Continue Reading

[list_settings.list_name] Current TLEs

August 2nd 2021 PST

HST 1 20580U 90037B 21213.86310130 .00000580 00000-0 24080-4 0 9996 2 20580 28.4698 124.6053 0002716 188.1450 244.3484 15.09694903517882 ISS (ZARYA) 1 25544U 98067A 21214.50743859 -.00000371 00000-0 13851-5 0 9996 2 25544 51.6440 113.6667 0001196 235.5888 294.1457 15.48861213295779 CXO 1 25867U 99040B 21215.71111934 .00000378 00000-0 00000+0 0 9995 2 25867 53.9655 253.3152 8397908 226.7303 0.2802 0.37804517 21753 ____________________________________________________________________ These 2-Line ...Continue Reading

[list_settings.list_name] Current TLEs

August 1st 2021 PST

HST 1 20580U 90037B 21213.14777144 .00000601 00000-0 25364-4 0 9999 2 20580 28.4697 129.3386 0002744 180.5027 316.5365 15.09694417518026 ISS (ZARYA) 1 25544U 98067A 21213.47511809 -.00005027 00000-0 -83626-4 0 9999 2 25544 51.6441 118.7731 0001112 226.4321 303.3835 15.48855972295618 CXO 1 25867U 99040B 21215.71111934 .00000378 00000-0 00000+0 0 9995 2 25867 53.9655 253.3152 8397908 226.7303 0.2802 0.37804517 21753 ____________________________________________________________________ These 2-Line ...Continue Reading

[list_settings.list_name] Current TLEs

July 31st 2021 PST

HST 1 20580U 90037B 21211.49989939 .00000634 00000-0 27374-4 0 9991 2 20580 28.4695 140.2425 0002804 163.1511 0.1167 15.09693121517770 ISS (ZARYA) 1 25544U 98067A 21212.30049829 .00005256 00000-0 10398-3 0 9995 2 25544 51.6430 124.5801 0001390 220.3682 235.5802 15.48861065295430 CXO 1 25867U 99040B 21213.06745505 .00000276 00000-0 00000-0 0 9996 2 25867 54.0273 253.4240 8393011 226.6988 0.4254 0.37804077 10616 ____________________________________________________________________ These 2-Line ...Continue Reading

[list_settings.list_name] Current TLEs

July 30th 2021 PST

HST 1 20580U 90037B 21210.17364920 .00000628 00000-0 27002-4 0 9993 2 20580 28.4693 149.0185 0002857 149.3781 351.5711 15.09691895517326 ISS (ZARYA) 1 25544U 98067A 21211.11452309 .00000429 00000-0 15987-4 0 9991 2 25544 51.6433 130.4443 0001206 216.9557 101.7962 15.48866931295246 CXO 1 25867U 99040B 21213.06745505 .00000276 00000-0 00000-0 0 9996 2 25867 54.0273 253.4240 8393011 226.6988 0.4254 0.37804077 10616 ____________________________________________________________________ These 2-Line ...Continue Reading

[list_settings.list_name] Current TLEs

July 29th 2021 PST

HST 1 20580U 90037B 21210.17364920 .00000628 00000-0 27002-4 0 9993 2 20580 28.4693 149.0185 0002857 149.3781 351.5711 15.09691895517573 ISS (ZARYA) 1 25544U 98067A 21210.30942291 .00001068 00000-0 27632-4 0 9995 2 25544 51.6437 134.4261 0001388 210.7922 295.8294 15.48867448295125 CXO 1 25867U 99040B 21210.42334973 .00000251 00000-0 00000+0 0 9998 2 25867 54.0750 253.5143 8386826 226.6879 0.4833 0.37803590 21731 ____________________________________________________________________ These 2-Line ...Continue Reading

[list_settings.list_name] Current TLEs

July 28th 2021 PST

HST 1 20580U 90037B 21208.59107459 .00000608 00000-0 25784-4 0 9991 2 20580 28.4691 159.4907 0002894 133.1157 29.6651 15.09690373517337 ISS (ZARYA) 1 25544U 98067A 21209.27487523 -.00000447 00000-0 00000+0 0 9997 2 25544 51.6446 139.5449 0001372 203.3526 290.9078 15.48864796294960 CXO 1 25867U 99040B 21210.42334973 .00000251 00000-0 00000+0 0 9998 2 25867 54.0750 253.5143 8386826 226.6879 0.4833 0.37803590 21731 ____________________________________________________________________ These 2-Line ...Continue Reading

[list_settings.list_name] Current TLEs

July 27th 2021 PST

HST 1 20580U 90037B 21207.59958228 .00000622 00000-0 26608-4 0 9990 2 20580 28.4690 166.0517 0002916 123.0705 40.3811 15.09689550516937 ISS (ZARYA) 1 25544U 98067A 21208.17980969 -.00000447 00000-0 00000+0 0 9997 2 25544 51.6430 144.9602 0001621 199.7803 304.4707 15.48856848294797 CXO 1 25867U 99040B 21210.42334973 .00000251 00000-0 00000+0 0 9998 2 25867 54.0750 253.5143 8386826 226.6879 0.4833 0.37803590 21731 ____________________________________________________________________ These 2-Line ...Continue Reading
  • This mailing list is a public mailing list - anyone may join or leave, at any time.
  • This mailing list is announce-only.

International Space Station (ISS) / Hubble Space Telescope (HST) / Chandra X-Ray Observatory Orbital Data via EMAIL

Privacy Policy:

Private list